Change the Weather History Date:

Friday, October 28, 2011

  Actual Average (KJMR) Record (KJMR)
Temperature  
Mean Temperature 40 °F -  
Max Temperature 51 °F 50 °F 73 °F (1948)
Min Temperature 28 °F 25 °F 1 °F (2003)
Degree Days  
Heating Degree Days 26    
Moisture  
Dew Point 30 °F    
Average Humidity 73    
Maximum Humidity 100    
Minimum Humidity 35    
Precipitation  
Precipitation 0.00 in - - ()
Sea Level Pressure  
Sea Level Pressure 30.00 in    
Wind  
Wind Speed 3 mph (West)    
Max Wind Speed 16 mph    
Max Gust Speed 23 mph    
Visibility 10 miles    
Events      
Averages and records for this station are not official NWS values.
T = Trace of Precipitation, MM = Missing Value Source: NWS Daily Summary

Daily Weather History Graph

Daily Weather History Graph

Search for Another Location

Airport or City:

Trip Planner

Search our weather history database for the weather conditions in past years. The results will help you decide how hot, cold, wet, or windy it might be!

Date:

Astronomy

Oct. 28, 2011 Rise Set
Actual Time 7:46 AM CDT 6:03 PM CDT
Civil Twilight 7:15 AM CDT 6:34 PM CDT
Nautical Twilight 6:40 AM CDT 7:09 PM CDT
Astronomical Twilight 6:05 AM CDT 7:44 PM CDT
Moon 10:12 AM CDT (10/28) 7:17 PM CDT (10/28)
Length of Visible Light 11h 19m
Length of Day
10h 17m
Waxing Crescent, 5% of the Moon is Illuminated
Oct 28
Waxing Crescent
Nov 2
First Quarter
Nov 10
Full
Nov 18
Last Quarter
Nov 25
New

Hourly Weather History & Observations

Time (CDT) Temp. Windchill Dew Point Humidity Pressure Visibility Wind Dir Wind Speed Gust Speed Precip Events Conditions
12:15 AM 28.4 °F - 28.4 °F 100% 30.06 in 10.0 mi Calm Calm - N/A   Clear
12:35 AM 28.4 °F - 28.4 °F 100% 30.05 in 10.0 mi Calm Calm - N/A   Clear
12:55 AM 28.4 °F - 28.4 °F 100% 30.05 in 10.0 mi Calm Calm - N/A   Clear
1:15 AM 28.4 °F - 28.4 °F 100% 30.05 in 10.0 mi Calm Calm - N/A   Clear
1:35 AM 28.4 °F - 28.4 °F 100% 30.05 in 10.0 mi Calm Calm - N/A   Clear
1:55 AM 28.4 °F - 28.4 °F 100% 30.05 in 10.0 mi Calm Calm - N/A   Clear
2:15 AM 28.4 °F - 26.6 °F 93% 30.05 in 10.0 mi Calm Calm - N/A   Clear
2:35 AM 28.4 °F - 28.4 °F 100% 30.05 in 10.0 mi Calm Calm - N/A   Scattered Clouds
3:35 AM 30.2 °F - 28.4 °F 93% 30.04 in 10.0 mi Calm Calm - N/A   Overcast
3:55 AM 30.2 °F - 28.4 °F 93% 30.03 in 10.0 mi Calm Calm - N/A   Overcast
4:15 AM 30.2 °F - 28.4 °F 93% 30.02 in 10.0 mi Calm Calm - N/A   Overcast
4:35 AM 30.2 °F - 28.4 °F 93% 30.02 in 10.0 mi Calm Calm - N/A   Overcast
4:55 AM 30.2 °F - 30.2 °F 100% 30.01 in 10.0 mi Calm Calm - N/A   Overcast
5:15 AM 32.0 °F - 30.2 °F 93% 30.01 in 10.0 mi Calm Calm - N/A   Overcast
5:35 AM 32.0 °F - 30.2 °F 93% 30.01 in 10.0 mi Calm Calm - N/A   Overcast
5:55 AM 32.0 °F - 30.2 °F 93% 30.01 in 10.0 mi Calm Calm - N/A   Overcast
6:15 AM 32.0 °F - 30.2 °F 93% 30.00 in 10.0 mi Calm Calm - N/A   Overcast
6:35 AM 33.8 °F 29.6 °F 30.2 °F 87% 30.00 in 10.0 mi SE 4.6 mph - N/A   Overcast
6:55 AM 33.8 °F 30.8 °F 30.2 °F 87% 29.99 in 10.0 mi SSE 3.5 mph - N/A   Overcast
7:15 AM 33.8 °F - 32.0 °F 93% 29.99 in 10.0 mi Calm Calm - N/A   Overcast
7:35 AM 33.8 °F - 32.0 °F 93% 29.99 in 10.0 mi Calm Calm - N/A   Overcast
7:55 AM 33.8 °F - 32.0 °F 93% 30.00 in 10.0 mi Calm Calm - N/A   Mostly Cloudy
8:15 AM 33.8 °F - 32.0 °F 93% 30.00 in 10.0 mi Calm Calm - N/A   Overcast
8:35 AM 33.8 °F - 32.0 °F 93% 30.00 in 10.0 mi Calm Calm - N/A   Overcast
8:55 AM 33.8 °F - 32.0 °F 93% 30.00 in 10.0 mi Calm Calm - N/A   Drizzle
9:15 AM 33.8 °F - 32.0 °F 93% 30.00 in 10.0 mi Calm Calm - N/A   Overcast
9:35 AM 35.6 °F - 32.0 °F 87% 30.00 in 10.0 mi Calm Calm - N/A   Overcast
9:55 AM 35.6 °F - 33.8 °F 93% 30.00 in 10.0 mi Calm Calm - N/A   Overcast
10:15 AM 37.4 °F - 33.8 °F 87% 30.00 in 10.0 mi Calm Calm - N/A   Mostly Cloudy
10:35 AM 39.2 °F 35.0 °F 32.0 °F 75% 30.00 in 10.0 mi SW 5.8 mph - N/A   Mostly Cloudy
10:55 AM 41.0 °F 39.0 °F 33.8 °F 76% 30.00 in 10.0 mi WSW 3.5 mph - N/A   Scattered Clouds
11:15 AM 42.8 °F 40.1 °F 33.8 °F 70% 30.00 in 10.0 mi West 4.6 mph - N/A   Clear
11:35 AM 44.6 °F 42.2 °F 33.8 °F 66% 30.00 in 10.0 mi West 4.6 mph - N/A   Clear
11:55 AM 46.4 °F 43.5 °F 35.6 °F 66% 30.00 in 10.0 mi West 5.8 mph - N/A   Clear
12:15 PM 50.0 °F - 33.8 °F 54% 29.99 in 10.0 mi NW 6.9 mph - N/A   Clear
12:35 PM 50.0 °F - 33.8 °F 54% 29.99 in 10.0 mi West 6.9 mph - N/A   Scattered Clouds
12:55 PM 50.0 °F - 35.6 °F 58% 29.98 in 10.0 mi West 9.2 mph - N/A   Overcast
1:15 PM 51.8 °F - 32.0 °F 47% 29.98 in 10.0 mi West 13.8 mph 21.9 mph N/A   Overcast
1:35 PM 51.8 °F - 30.2 °F 44% 29.97 in 10.0 mi WNW 10.4 mph - N/A   Mostly Cloudy
1:55 PM 51.8 °F - 30.2 °F 44% 29.96 in 10.0 mi West 16.1 mph 23.0 mph N/A   Scattered Clouds
2:15 PM 51.8 °F - 30.2 °F 44% 29.96 in 10.0 mi West 12.7 mph 18.4 mph N/A   Scattered Clouds
2:35 PM 51.8 °F - 30.2 °F 44% 29.96 in 10.0 mi West 11.5 mph 23.0 mph N/A   Mostly Cloudy
2:55 PM 51.8 °F - 26.6 °F 38% 29.96 in 10.0 mi West 13.8 mph 21.9 mph N/A   Scattered Clouds
3:15 PM 51.8 °F - 28.4 °F 41% 29.96 in 10.0 mi West 13.8 mph 19.6 mph N/A   Scattered Clouds
3:35 PM 51.8 °F - 26.6 °F 38% 29.95 in 10.0 mi WNW 8.1 mph - N/A   Scattered Clouds
3:55 PM 51.8 °F - 28.4 °F 41% 29.95 in 10.0 mi West 13.8 mph 19.6 mph N/A   Scattered Clouds
4:15 PM 51.8 °F - 26.6 °F 38% 29.96 in 10.0 mi West 10.4 mph 18.4 mph N/A   Scattered Clouds
4:35 PM 51.8 °F - 24.8 °F 35% 29.96 in 10.0 mi WNW 9.2 mph 16.1 mph N/A   Scattered Clouds
4:55 PM 51.8 °F - 26.6 °F 38% 29.96 in 10.0 mi West 6.9 mph 16.1 mph N/A   Scattered Clouds
5:15 PM 50.0 °F - 24.8 °F 37% 29.96 in 10.0 mi WNW 8.1 mph - N/A   Scattered Clouds
5:35 PM 50.0 °F - 26.6 °F 40% 29.96 in 10.0 mi West 13.8 mph 18.4 mph N/A   Clear
5:55 PM 48.2 °F - 28.4 °F 46% 29.96 in 10.0 mi West 8.1 mph - N/A   Mostly Cloudy
6:15 PM 46.4 °F 42.9 °F 28.4 °F 50% 29.97 in 10.0 mi West 6.9 mph - N/A   Overcast
6:35 PM 46.4 °F 44.3 °F 28.4 °F 50% 29.98 in 10.0 mi WNW 4.6 mph - N/A   Scattered Clouds
6:55 PM 46.4 °F 45.2 °F 28.4 °F 50% 29.98 in 10.0 mi WNW 3.5 mph - N/A   Mostly Cloudy
7:15 PM 44.6 °F 43.1 °F 28.4 °F 53% 29.99 in 10.0 mi WNW 3.5 mph - N/A   Overcast
7:55 PM 44.6 °F 43.1 °F 26.6 °F 49% 29.99 in 10.0 mi WNW 3.5 mph - N/A   Clear
8:15 PM 42.8 °F 41.1 °F 28.4 °F 57% 29.99 in 10.0 mi NW 3.5 mph - N/A   Scattered Clouds
8:35 PM 42.8 °F 40.1 °F 28.4 °F 57% 30.00 in 10.0 mi WNW 4.6 mph - N/A   Clear
8:55 PM 42.8 °F 39.3 °F 28.4 °F 57% 30.00 in 10.0 mi NW 5.8 mph - N/A   Clear
9:15 PM 41.0 °F 37.1 °F 28.4 °F 61% 30.00 in 10.0 mi NW 5.8 mph - N/A   Clear
9:35 PM 41.0 °F 38.0 °F 28.4 °F 61% 30.00 in 10.0 mi NW 4.6 mph - N/A   Clear
9:55 PM 41.0 °F - 28.4 °F 61% 30.01 in 10.0 mi Calm Calm - N/A   Scattered Clouds
10:15 PM 39.2 °F - 28.4 °F 65% 30.00 in 10.0 mi Calm Calm - N/A   Scattered Clouds
10:35 PM 37.4 °F 34.9 °F 28.4 °F 70% 30.01 in 10.0 mi WNW 3.5 mph - N/A   Mostly Cloudy
10:55 PM 32.0 °F - 28.4 °F 87% 30.01 in 10.0 mi Calm Calm - N/A   Overcast
11:15 PM 32.0 °F - 28.4 °F 87% 30.01 in 10.0 mi Calm Calm - N/A   Scattered Clouds
11:35 PM 32.0 °F 27.5 °F 28.4 °F 87% 30.00 in 10.0 mi SW 4.6 mph - N/A   Clear
11:55 PM 32.0 °F 27.5 °F 30.2 °F 93% 30.01 in 10.0 mi West 4.6 mph - N/A   Scattered Clouds